User: anonymous   Login
Location: Unspecified
(0.0000°N, 0.0000°E)
Time: 01:39:08
(UTC+00:00)
Language:

USA 274 - Orbit

View from above orbital plane
View from above orbital plane
View from above satellite
View from above satellite

Ground track
Ground track

The orbit data is extracted from the following two-line orbital elements,

1 42058U 17011A   17113.81572486 0.00000000  00000-0  00000-0 0    06
2 42058  63.4408  15.8406 0123629 178.8363 181.1637 13.40842691    04
Epoch (UTC): 23 April 2017 19:34:38
Eccentricity: 0.0123629
inclination: 63.4408°
perigee height: 1013 km
apogee height: 1198 km
right ascension of ascending node: 15.8406°
argument of perigee: 178.8363°
revolutions per day: 13.40842691
mean anomaly at epoch: 181.1637°
orbit number at epoch: 0

The dashed part of the orbit path shows where the satellite is in the earth's shadow,  

DLR